[[{"header":{"parameterUnit":"m.s-1","parameterCategory":1,"la1":30.2991,"la2":30.254,"lo1":-89.0895,"lo2":-89.0444,"dy":0.0017,"dx":0.0017,"nx":28,"ny":28,"refTime":"2023-08-11T09:00:00:Z","depth":0,"parameterNumber":2,"parameterNumberName":"U-component_of_WINDS"},"data":[0,0,0,0,0,0,0,0,0,0,0,0,0,0,0,0,0,0,0,0,0,0,0,0,0,0,0,0,0,0,0,0,0,0,0,0,0,0,0,0,0,0,0,0,0,0,0,0,0,0,0,0,0,0,0,0,0,0,6.1566,6.1567,0,6.167,6.1671,6.1672,6.1572,6.1568,6.1564,6.156,6.1666,6.1673,6.1679,0,0,0,0,0,0,0,0,0,0,0,0,0,6.1279,6.1285,6.1566,6.1568,6.1569,6.167,6.1671,6.1673,6.1573,6.1568,6.1563,6.1558,6.1664,6.1672,6.168,0,0,0,0,0,0,0,0,0,0,0,0,0,6.1396,6.1287,6.1566,6.1531,6.1529,6.167,6.1671,6.1673,6.1574,6.1568,6.1562,6.1556,6.1662,6.1671,6.1681,6.1861,0,0,6.1711,6.1715,0,0,0,0,0,0,0,0,6.1389,6.1406,6.1535,6.1534,6.1532,6.1602,6.1609,6.1736,6.1575,6.1557,6.156,6.1553,6.165,6.166,6.1693,6.1866,6.187,6.1712,6.1718,6.1722,6.1725,0,0,0,0,0,0,0,6.1381,6.1401,6.1607,6.1537,6.1535,6.151,6.1519,6.1632,6.1635,6.1558,6.1551,6.1565,6.1648,6.1683,6.1694,6.1872,6.1711,6.172,6.1726,6.173,6.2194,6.22,0,0,0,0,0,0,6.1377,6.1395,6.1604,6.161,6.1444,6.152,6.1531,6.1585,6.1634,6.1636,6.157,6.1559,6.167,6.1683,6.1698,6.1908,6.1722,6.1731,6.1736,6.2187,6.2195,6.2202,0,0,0,0,0,0,6.1372,6.1397,6.16,6.1501,6.1525,6.1531,6.1593,6.1591,6.1626,6.1643,6.1643,6.1606,6.1665,6.1684,6.182,6.1911,6.1735,6.1744,6.218,6.219,6.2199,6.2333,0,0,0,0,0,0,6.1364,6.1395,6.1465,6.1503,6.1531,6.1722,6.1599,6.1597,6.1643,6.1631,6.1677,6.1678,6.1662,6.1806,6.183,6.1921,6.1752,6.2172,6.2184,6.2196,6.2321,6.2346,6.2368,0,0,0,0,0,6.1354,6.1499,6.1469,6.1494,6.1617,6.1727,6.1742,6.1721,6.1651,6.172,6.173,6.1677,6.1898,6.1821,6.1847,6.1942,6.2166,6.2181,6.2195,6.231,6.2341,6.2368,0,0,0,0,0,0,6.1471,6.1504,6.147,6.1633,6.1678,6.171,6.1796,6.1755,6.1821,6.1807,6.1777,6.1789,6.1932,6.1951,6.1865,6.2117,6.202,6.2041,6.2099,6.2129,6.2152,6.2143,6.176,0,0,0,0,0,6.1516,6.1603,6.1627,6.1768,6.1792,6.1791,6.1838,6.1817,6.1862,6.1881,6.1901,6.1947,6.2026,6.2079,6.2153,6.2324,6.233,6.2402,6.2426,6.2445,6.2463,6.255,6.2581,6.225,6.225,6.2249,0,0,6.161,6.1638,6.1695,6.1792,6.1824,6.1913,6.1807,6.1907,6.1972,6.1896,6.2024,6.2041,6.2091,6.2244,6.2312,6.2264,6.2556,6.2464,6.2479,6.2486,6.2568,6.26,6.2628,6.226,6.2258,6.2256,0,0,6.1825,6.1857,6.1975,6.201,6.206,6.2058,6.2087,6.2125,6.2132,6.2261,6.2205,6.2282,6.2421,6.2456,6.2493,6.272,6.2672,6.2745,6.2868,6.2954,6.298,6.3003,6.3081,6.3109,6.2763,6.2763,6.2763,0,6.1934,6.2067,6.2042,6.2145,6.2188,6.2123,6.2241,6.2276,6.2349,6.2379,6.2325,6.2494,6.2523,6.2682,6.2737,6.277,6.28,6.2739,6.2979,6.3002,6.3023,6.3096,6.3126,6.2771,6.277,6.277,6.2769,0,6.2197,6.229,6.238,6.245,6.2504,6.2615,6.2605,6.2662,6.2637,6.264,6.277,6.2802,6.288,6.2917,6.2894,6.3072,6.304,6.2983,6.2884,6.3063,6.3131,6.3159,6.2783,6.278,6.2778,6.2776,0,0,6.2488,6.2542,6.2575,6.2605,6.2655,6.2725,6.2833,6.2908,6.2956,6.3008,6.3095,6.3213,6.3159,6.3201,6.3181,6.3257,6.343,6.319,6.3191,6.323,6.3624,6.3664,6.3697,6.34,6.3405,6.341,6.3619,0,6.2702,6.2887,6.2867,6.3043,6.3126,6.3065,6.3158,6.3198,6.3204,6.3275,6.3281,6.3363,6.3288,6.3312,6.3385,6.3394,6.3508,6.3379,6.3478,6.3482,6.3464,6.3734,6.3777,6.3973,6.3646,6.365,6.3654,0,6.2976,6.3036,6.322,6.3254,6.3289,6.3373,6.3438,6.3508,6.3551,6.355,6.3596,6.3562,6.3667,6.3569,6.3712,6.3624,6.3664,6.3674,6.3681,6.3687,6.3576,6.3743,6.4035,6.4064,6.3696,6.3693,6.369,0,6.3165,6.3293,6.3418,6.3446,6.349,6.355,6.3571,6.3609,6.3654,6.3712,6.3741,6.3811,6.3849,6.3903,6.3888,6.3819,6.4034,6.3935,6.4034,6.4034,6.4079,6.4076,6.4378,6.4111,6.4111,6.411,6.411,0,6.3404,6.3518,6.3503,6.358,6.3706,6.3681,6.3805,6.3819,6.3853,6.393,6.3882,6.3956,6.3934,6.4006,6.3995,6.4113,6.4132,6.4132,6.4127,6.4134,6.4134,6.4157,6.4142,6.4118,6.4116,6.4115,6.4113,0,6.3635,6.3631,6.3763,6.3794,6.3804,6.3894,6.392,6.3991,6.3993,6.4091,6.4113,6.4115,6.4197,6.4189,6.4282,6.4274,6.4419,6.44,6.4405,6.4399,6.4496,6.4486,6.4822,6.4863,6.4572,6.4575,6.4578,0,6.3786,6.3872,6.3912,6.396,6.3985,6.4064,6.4109,6.4089,6.4138,6.4193,6.4257,6.4335,6.4395,6.4529,6.4538,6.4608,6.4588,6.4701,6.4598,6.4601,6.4585,6.4579,6.4585,6.472,6.4723,6.4726,6.4728,0,6.4054,6.4046,6.4115,6.4182,6.4238,6.429,6.4337,6.4379,6.4362,6.442,6.4503,6.455,6.4643,6.4719,6.4785,6.4805,6.4764,6.4761,6.4786,6.4793,6.479,6.4789,6.4456,6.4753,6.475,6.4748,6.4747,6.4746,6.4247,6.4319,6.4357,6.4434,6.4467,6.4511,6.4579,6.4589,6.4657,6.4731,6.4715,6.4807,6.4846,6.4929,6.4956,6.5028,6.4986,6.5025,6.5034,6.5043,6.5052,6.4782,6.504,6.5039,6.5039,6.5038,6.5038,0,6.4508,6.453,6.4601,6.4667,6.4727,6.4683,6.4732,6.4784,6.4866,6.4906,6.4966,6.506,6.5134,6.5148,6.5218,6.5272,6.5254,6.5291,6.5285,6.5289,6.5087,6.5056,6.5303,6.5303,6.5303,6.5303,6.5303,6.5303,6.4651,6.477,6.4767,6.4901,6.4921,6.5011,6.5042,6.5082,6.5113,6.522,6.528,6.5289,6.5318,6.5389,6.5454,6.5456,6.5483,6.5526,6.5521,6.5331,6.5304,6.5279,6.5249,6.5533,6.5533,6.5716,6.5718,6.5719]},{"header":{"parameterUnit":"m.s-1","parameterCategory":1,"la1":30.2991,"la2":30.254,"lo1":-89.0895,"lo2":-89.0444,"dy":0.0017,"dx":0.0017,"nx":28,"ny":28,"refTime":"2023-08-11T09:00:00:Z","depth":0,"parameterNumber":3,"parameterNumberName":"V-component_of_WINDS"},"data":[0,0,0,0,0,0,0,0,0,0,0,0,0,0,0,0,0,0,0,0,0,0,0,0,0,0,0,0,0,0,0,0,0,0,0,0,0,0,0,0,0,0,0,0,0,0,0,0,0,0,0,0,0,0,0,0,0,0,3.2346,3.2348,0,3.2467,3.2468,3.247,3.2479,3.2478,3.2477,3.2475,3.2595,3.2599,3.2604,0,0,0,0,0,0,0,0,0,0,0,0,0,3.2118,3.2123,3.2346,3.2348,3.2349,3.2467,3.2468,3.247,3.2479,3.2478,3.2476,3.2475,3.2594,3.2599,3.2604,0,0,0,0,0,0,0,0,0,0,0,0,0,3.2226,3.2124,3.2346,3.2368,3.2371,3.2466,3.2468,3.247,3.248,3.2478,3.2476,3.2474,3.2592,3.2598,3.2605,3.2685,0,0,3.2625,3.2628,0,0,0,0,0,0,0,0,3.222,3.2234,3.2363,3.2367,3.2371,3.2456,3.2432,3.2542,3.248,3.2438,3.2475,3.2473,3.255,3.256,3.2587,3.269,3.2695,3.2625,3.2629,3.2632,3.2634,0,0,0,0,0,0,0,3.2212,3.2229,3.2394,3.2365,3.237,3.237,3.2383,3.2453,3.2504,3.2442,3.2443,3.2457,3.2552,3.258,3.259,3.2697,3.2625,3.2631,3.2635,3.2638,3.2869,3.2871,0,0,0,0,0,0,3.2201,3.2223,3.239,3.2397,3.2289,3.2376,3.2391,3.2431,3.2503,3.2512,3.2459,3.2457,3.257,3.2582,3.2594,3.2691,3.2632,3.2638,3.2642,3.2867,3.287,3.2872,0,0,0,0,0,0,3.2196,3.2216,3.2385,3.2311,3.2332,3.2382,3.2427,3.2434,3.2463,3.2516,3.2524,3.2479,3.2569,3.2585,3.2662,3.2695,3.2641,3.2647,3.2864,3.2868,3.2871,3.2886,0,0,0,0,0,0,3.219,3.2214,3.2247,3.2311,3.2336,3.2453,3.2429,3.2438,3.2475,3.2474,3.2537,3.2546,3.2569,3.2652,3.2668,3.2703,3.2653,3.2862,3.2866,3.287,3.2883,3.2889,3.2895,0,0,0,0,0,3.2182,3.2246,3.2248,3.2268,3.2378,3.2455,3.2469,3.2495,3.2477,3.2509,3.2543,3.2544,3.2689,3.266,3.2678,3.2716,3.286,3.2865,3.2869,3.288,3.2888,3.2895,0,0,0,0,0,0,3.2183,3.2255,3.2258,3.2346,3.2394,3.2456,3.2497,3.2503,3.2556,3.2553,3.2582,3.2596,3.2672,3.2701,3.2668,3.2795,3.2772,3.2781,3.2774,3.2782,3.2788,3.2779,3.2658,0,0,0,0,0,3.2194,3.2252,3.2311,3.2382,3.2406,3.2447,3.2482,3.2498,3.2548,3.2569,3.2608,3.2656,3.2712,3.2748,3.2803,3.2887,3.2899,3.2921,3.2927,3.2932,3.294,3.2984,3.2994,3.2888,3.2888,3.2888,0,0,3.2216,3.2262,3.2297,3.2383,3.2423,3.248,3.2465,3.2527,3.2569,3.2578,3.2653,3.2683,3.2738,3.2818,3.2856,3.2845,3.2971,3.2939,3.2942,3.2947,3.299,3.3,3.3009,3.2892,3.2891,3.289,0,0,3.2286,3.2328,3.2391,3.243,3.249,3.2517,3.2532,3.2593,3.2614,3.269,3.2697,3.2747,3.2844,3.2882,3.2914,3.2996,3.2998,3.3013,3.3045,3.3088,3.3096,3.3104,3.3132,3.3141,3.302,3.302,3.302,0,3.2306,3.2395,3.2422,3.2484,3.252,3.2531,3.2594,3.2631,3.2705,3.2729,3.2717,3.2837,3.2875,3.2963,3.2983,3.3009,3.3026,3.3006,3.3093,3.3101,3.3108,3.3135,3.3146,3.3021,3.3021,3.3021,3.3021,0,3.2415,3.2476,3.252,3.2592,3.2633,3.2695,3.273,3.2768,3.2779,3.2807,3.2883,3.2928,3.2992,3.3014,3.3026,3.3103,3.3095,3.3087,3.3065,3.3119,3.3145,3.3155,3.3023,3.3023,3.3022,3.3022,0,0,3.2491,3.2576,3.2592,3.2624,3.269,3.2736,3.2797,3.286,3.2892,3.2942,3.2992,3.3073,3.3066,3.3102,3.3118,3.3156,3.3216,3.3144,3.3145,3.3154,3.3302,3.3307,3.3318,3.3217,3.3219,3.3221,3.3297,0,3.2567,3.2678,3.2704,3.2798,3.2854,3.2864,3.2916,3.2961,3.2988,3.3037,3.3066,3.3122,3.311,3.3131,3.3169,3.32,3.3245,3.3195,3.3263,3.3265,3.3249,3.3332,3.3338,3.3407,3.3307,3.3309,3.331,0,3.2672,3.2725,3.2825,3.2882,3.2906,3.2954,3.3012,3.306,3.311,3.3126,3.3166,3.3178,3.3239,3.3213,3.3297,3.3262,3.3291,3.331,3.3314,3.3321,3.3291,3.334,3.343,3.344,3.3326,3.3325,3.3324,0,3.2716,3.2812,3.2884,3.2911,3.298,3.3012,3.3042,3.309,3.3126,3.3176,3.3199,3.3255,3.3286,3.3328,3.3354,3.3333,3.3435,3.3411,3.3449,3.3448,3.347,3.3468,3.3565,3.349,3.3489,3.3489,3.3489,0,3.2799,3.2859,3.2904,3.2949,3.3016,3.3043,3.3108,3.3137,3.318,3.3228,3.324,3.3285,3.3316,3.3365,3.3385,3.345,3.3464,3.3478,3.3482,3.3476,3.3475,3.3496,3.3491,3.3492,3.3491,3.3491,3.349,0,3.2859,3.2892,3.2971,3.3029,3.3044,3.3091,3.314,3.3182,3.3208,3.3269,3.3285,3.3325,3.3383,3.3413,3.3484,3.3497,3.3571,3.3573,3.3554,3.3556,3.3591,3.3587,3.3704,3.372,3.3635,3.3636,3.3636,0,3.2909,3.2956,3.3019,3.3053,3.3083,3.3138,3.3174,3.3201,3.3238,3.3298,3.3332,3.339,3.3439,3.3529,3.3564,3.3618,3.3621,3.3658,3.3629,3.3621,3.362,3.3617,3.3621,3.3663,3.3664,3.3665,3.3665,0,3.2995,3.3008,3.3061,3.3119,3.3161,3.3208,3.3254,3.328,3.3315,3.3355,3.3414,3.3452,3.3525,3.3582,3.3638,3.3666,3.3671,3.3674,3.3685,3.368,3.3667,3.3673,3.3567,3.3671,3.3671,3.367,3.367,3.367,3.3051,3.3092,3.3143,3.32,3.3237,3.3279,3.3321,3.3353,3.3403,3.3465,3.3478,3.354,3.3587,3.3663,3.3693,3.3741,3.3733,3.3749,3.3754,3.3757,3.3758,3.366,3.3751,3.3751,3.3751,3.3751,3.3751,0,3.3136,3.3169,3.3221,3.3285,3.3329,3.3331,3.3381,3.3417,3.3473,3.3516,3.3563,3.363,3.3685,3.3723,3.3779,3.3809,3.3812,3.3823,3.382,3.3826,3.3763,3.3747,3.3819,3.3819,3.3819,3.3819,3.3819,3.3819,3.3186,3.3255,3.3274,3.3361,3.3393,3.3455,3.3484,3.3521,3.3556,3.3631,3.3677,3.3702,3.3743,3.3801,3.385,3.386,3.3879,3.3889,3.3898,3.3838,3.3831,3.3824,3.3809,3.3893,3.3893,3.3958,3.3959,3.3959]}]]